星链-3324 (STARLINK-3324 )

导读

STARLINK-3324是美国太空探索技术公司星链星座的成员,于2022年1月6日发射入轨,属于星链项目低轨互联网卫星星座的扩容卫星。它运行在近地轨道,承担全球网络覆盖服务任务,为偏远地区、海上空中等场景提供宽带互联网接入能力,推进星链星座全球组网进程。

基本信息
目录编号:
50814
目录名称:
STARLINK-3324
国际标识:
2022-001M
轨道中心:
EARTH
卫星名称:
星链-3324
卫星全名:
星链-3324 (STARLINK-3324 )
卫星状态:
在轨 (已飞行1710 天)
发射日期:
2022-01-06 UTC
国别 :
美国 (US)
星等 :
--
该卫星已列入 空间交会检测服务 Space Conjunction Data Service (SCDS) ,当前飞行风险评估等级: 无高风险
轨道信息
数据来源 国际轨道数据
星历时间: 2026-09-12T01:47:55+0800
12小时前
查看轨道信息
半长轴: 6848.845km
偏心率: 0.0001204
轨道倾角: 53.162°
近地点辐角 67.791°
升交点赤经 44.542°
平近点角 292.322°
近地点: 469.883km
远地点: 471.533km
周期: 94.013分钟
每日圈数: 15.31711
详细信息
固有亮度:
5
最大亮度:
2.5
卫星平台:
Starlink v1.5
覆盖范围:
全球
运营商:
太空探索技术公司
运营商所在国:
美国
制造商(研发单位):
太空探索技术公司
制造商所在国:
美国
使用方式:
暂无
卫星简介
星链(Starlink)计划是由太空探索技术公司(SpaceX)提出的一个巨型低轨卫星互联网星座项目,计划在2019年至2024年间在太空搭建由约1.2万颗卫星组成的“星链”网络,其中1584颗将部署在地球上空550千米处的近地轨道,并从2020年开始工作。该卫星仍在工作。
2D轨道图
3D轨道图
轨道高度分析图
轨道倾角分析图
轨道综合分析图
查看轨道综合分析图
交会数据列表
事件ID 空间交会对象 最接近时刻(TCA) 交会距离 交会风险概率(CRP) 交会风险指数(CRI) 操作
CDM_260913-052505-081406-525821
2026-09-13T
05:25:07+0000
2.237 km
极远距离
1.928111E-6 低风险 0.41
CDM_260914-110305-081405-632921
2026-09-14T
11:03:42+0000
2.837 km
极远距离
1.386867E-6 低风险 0.38
CDM_260912-182405-081406-942721
2026-09-12T
18:24:13+0000
2.644 km
极远距离
1.287289E-6 低风险 0.37
CDM_260912-182505-081406-933621
2026-09-12T
18:25:13+0000
2.975 km
极远距离
1.24651E-6 低风险 0.37
CDM_260913-035005-081405-367021
2026-09-13T
03:50:45+0000
2.980 km
极远距离
1.171262E-6 低风险 0.36
与全量物体交会距离演化趋势
与全量物体交会风险概率演化趋势